Probability
4 6 9 11 11 8 4 1 0 0 0 0 0 0 0 0 0 0 0 0 0 0 0 0 0 0 0 0 0 0 0 0 0 0 0 0 0 0 0 0 0 0 0
4 5 6 6 6 4 1 0 0 0 0 0 0 0 0 0 0 0 0 0 0 0 0 0 0 0 0 0 0 0 0 0 0 0 0 0 0 0 0 0 0 0 0
4 4 3 2 1 1 0 0 0 0 0 0 0 0 0 0 0 0 0 0 0 0 0 0 0 0 0 0 0 0 0 0 0 0 0 0 0 0 0 0 0 0 0
2 2 2 0 0 0 0 0 0 0 0 0 0 0 0 0 0 0 0 0 0 0 0 0 0 0 0 0 0 0 0 0 0 0 0 0 0 0 0 0 0 0 0
0 1 1 0 0 0 0 0 0 0 0 0 0 0 0 0 0 0 0 0 0 0 0 0 0 0 0 0 0 0 0 0 0 0 0 0 0 0 0 0 0 0 0
0 0 0 0 0 0 0 0 0 0 0 0 0 0 0 0 0 0 0 0 0 0 0 0 0 0 0 0 0 0 0 0 0 0 0 0 0 0 0 0 0 0 0
0 0 0 0 0 0 0 0 0 0 0 0 0 0 0 0 0 0 0 0 0 0 0 0 0 0 0 0 0 0 0 0 0 0 0 0 0 0 0 0 0 0 0
0 0 0 0 0 0 0 0 0 0 1 1 0 0 0 0 0 0 0 0 0 0 0 0 0 0 0 0 0 0 0 0 0 0 0 0 0 0 0 0 0 0 0
0 0 0 0 0 0 0 0 0 1 2 1 0 0 0 0 0 0 0 0 0 0 0 0 0 0 0 0 0 0 0 0 0 0 0 0 0 0 0 0 0 0 0
0 0 0 0 0 0 0 0 1 2 2 1 0 0 0 0 0 0 0 0 0 0 0 0 0 0 0 0 0 0 0 0 0 0 0 0 0 0 0 0 0 0 0
0 0 0 0 0 0 0 1 1 1 1 0 0 0 0 0 0 0 0 0 0 0 0 0 0 0 0 0 0 0 0 0 0 0 0 0 0 0 0 0 0 0 0
0 0 0 0 0 1 1 1 1 0 0 0 0 0 0 0 0 0 0 0 0 0 0 0 0 0 0 0 0 0 0 0 0 0 0 0 0 0 0 0 0 0 0
0 0 0 0 0 1 1 1 0 0 0 0 0 0 0 0 0 0 0 0 0 0 0 0 0 0 0 0 0 0 0 0 0 0 0 0 0 0 0 0 0 0 0
0 0 0 0 0 0 0 0 0 0 0 0 0 0 0 0 0 0 0 0 0 0 0 0 0 0 0 0 0 0 0 0 0 0 0 0 0 0 0 0 0 0 0
0 0 0 0 0 0 0 0 0 0 0 0 0 0 0 0 0 0 0 0 0 0 0 0 0 0 0 0 0 0 0 0 0 0 0 0 0 0 0 0 0 0 0
0 0 0 0 0 0 0 0 0 0 0 0 0 0 0 0 0 0 0 0 0 0 0 0 0 0 0 0 0 0 0 0 0 0 0 0 0 0 0 0 0 0 0
0 0 0 0 0 0 0 0 0 0 0 0 0 0 0 0 0 0 0 0 0 0 0 0 0 0 0 0 0 0 0 0 0 0 0 0 0 0 0 0 0 0 0
0 0 0 0 0 0 0 0 0 0 0 0 0 0 0 0 0 0 0 0 0 0 0 0 0 0 0 0 0 0 0 0 0 0 0 0 0 0 0 0 0 0 0
0 0 1 1 0 0 0 0 0 0 0 0 0 0 0 0 0 0 0 0 0 0 0 0 0 0 0 0 0 0 0 0 0 0 0 0 0 0 0 0 0 0 0
0 0 1 1 0 0 0 0 0 0 0 0 0 0 0 0 0 0 0 0 0 0 0 0 0 0 0 0 0 0 0 0 0 0 0 0 0 0 0 0 0 0 0
0 0 0 0 0 0 0 0 0 0 0 0 0 0 0 0 0 0 0 0 0 0 0 0 0 0 0 0 0 0 0 0 0 0 0 0 0 0 0 0 0 0 0
0 0 0 0 0 0 0 0 0 0 0 0 0 0 0 0 0 0 0 0 0 0 0 0 0 0 0 0 0 0 0 0 0 0 0 0 0 0 0 0 0 0 0
1 0 0 0 0 0 0 0 0 0 0 0 0 0 0 0 0 0 0 0 0 0 0 0 0 0 0 0 0 0 0 0 0 0 0 0 0 0 0 0 0 0 0
1 0 0 0 0 0 0 0 0 0 0 0 0 0 0 0 0 0 0 0 0 0 0 0 0 0 0 0 0 0 0 0 0 0 0 0 0 0 0 0 0 0 0
1 0 0 0 0 0 0 0 0 0 0 0 0 0 0 0 0 0 0 0 0 0 0 0 0 0 0 0 0 0 0 0 0 0 0 0 0 0 0 0 0 0 0
0 0 0 0 0 0 0 0 0 0 0 0 0 0 0 0 0 0 0 0 0 0 0 0 0 0 0 0 0 0 0 0 0 0 0 0 0 0 0 0 0 0 0
Wind_Speed
5 6 8 9 8 8 8 8 7 5 4 3 3 3 2 2 2 2 4 4 4 4 4 3 4 4 4 3 4 3 4 3 3 3 4 4 3 3 2 2 1 2 3
7 9 8 7 8 8 8 8 7 6 5 3 3 3 3 2 2 2 3 4 4 4 4 4 3 3 3 5 5 4 3 3 3 2 2 4 6 5 4 3 3 3 2
11 11 10 8 9 9 9 9 8 7 6 5 3 2 3 3 2 1 1 2 3 4 4 4 3 3 3 2 3 3 3 2 3 2 2 2 2 4 4 4 4 4 3
10 10 10 9 10 10 9 8 7 7 6 5 4 4 3 2 2 2 2 2 2 3 4 4 4 3 2 2 1 2 2 2 2 2 1 1 2 1 4 5 4 5 4
12 12 11 11 10 10 9 8 7 7 6 6 6 5 4 3 2 2 2 1 1 1 3 4 4 3 2 2 1 1 1 1 1 0 1 1 1 1 1 3 5 5 4
12 11 10 9 8 9 8 8 8 7 7 7 7 7 7 5 4 3 2 1 1 0 2 4 4 3 2 2 1 1 0 0 1 1 1 1 0 1 0 2 3 4 4
11 11 11 10 10 11 10 9 10 8 8 8 7 7 7 6 5 4 3 2 1 1 2 3 4 3 3 3 2 1 1 1 1 2 2 2 2 2 2 2 2 3 4
12 13 14 13 12 12 12 11 11 9 8 8 7 6 7 5 4 4 4 4 3 3 3 4 4 4 3 3 3 2 2 2 2 3 3 2 3 2 2 2 1 2 3
14 14 14 13 12 12 12 13 12 9 9 8 7 7 7 6 6 5 4 3 3 3 4 4 4 4 4 4 3 3 3 3 3 4 4 3 3 2 2 2 3 2 2
13 14 13 13 12 12 10 10 11 11 9 9 8 7 7 7 6 5 5 5 4 4 4 4 4 4 4 4 4 3 4 4 4 3 4 4 3 3 3 3 2 3 3
14 14 13 12 11 9 10 10 10 9 8 9 7 7 7 7 6 6 6 6 5 5 5 5 4 4 4 4 4 5 5 5 5 4 5 5 4 3 3 3 3 3 3
13 13 11 10 9 10 11 11 11 10 10 9 8 8 7 7 7 6 7 6 6 6 6 5 5 5 5 5 5 6 6 6 6 6 5 6 5 5 4 3 4 4 4
10 9 9 11 11 11 11 11 11 11 9 9 9 8 7 8 8 7 7 6 6 6 6 6 6 6 6 6 6 6 6 6 7 6 6 6 5 6 5 5 5 4 5
10 10 10 10 11 11 11 11 11 10 10 9 9 9 9 9 9 8 7 7 7 7 7 7 7 7 6 6 6 6 6 6 6 6 6 6 6 7 7 6 6 5 5
10 12 12 10 10 10 10 10 10 10 10 9 10 10 9 8 8 8 8 7 7 8 7 7 6 6 6 6 7 6 6 6 6 6 6 7 9 10 8 6 6 6 5
11 11 11 11 12 12 12 11 11 10 9 10 11 10 8 8 8 8 8 7 7 7 7 7 7 7 7 9 11 8 6 6 6 7 7 7 8 10 12 12 12 10 7
7 10 11 13 13 14 14 14 13 10 10 11 10 9 9 9 9 9 8 8 8 7 8 8 7 8 9 12 12 12 7 7 7 7 7 7 8 8 6 8 10 10 13
3 5 6 8 9 10 10 11 9 10 11 10 10 9 10 10 9 8 9 9 7 7 7 8 8 8 9 13 14 14 9 7 8 8 8 8 8 9 8 7 7 8 8
1 1 3 4 5 6 7 7 8 9 9 10 10 10 10 10 9 9 10 8 7 7 7 6 8 8 9 13 14 13 6 7 9 9 9 9 9 13 14 8 8 8 8
4 3 2 3 1 3 4 6 7 7 10 11 11 10 9 10 10 11 9 7 7 8 7 7 8 9 9 12 15 13 5 7 7 7 8 12 12 13 13 8 7 8 9
6 5 5 4 3 2 2 2 3 7 9 7 6 7 8 9 9 8 7 6 7 7 7 8 8 8 11 12 15 14 8 8 7 6 7 7 12 13 13 10 8 11 9
10 8 7 7 6 6 5 4 2 5 3 2 3 5 6 6 6 6 6 6 6 7 7 7 8 8 9 12 13 16 16 13 9 8 7 8 12 13 12 9 10 13 9
9 8 8 9 9 9 7 6 6 6 4 3 2 2 3 3 3 5 6 5 5 6 7 7 8 8 7 8 16 17 17 17 11 9 11 11 12 11 9 12 14 10 6
7 7 8 9 8 8 8 6 6 6 6 5 4 4 4 4 3 3 4 5 6 7 7 8 9 9 7 7 7 7 8 11 11 9 9 11 11 10 10 9 8 7 6
5 6 6 6 6 6 6 6 6 6 6 5 5 5 4 4 5 5 5 6 7 9 9 9 9 9 9 12 13 9 7 7 7 5 3 3 3 4 5 5 6 6 6
5 5 6 5 5 6 6 6 5 5 4 4 4 4 4 4 5 6 7 10 12 15 17 17 15 11 14 14 15 16 15 13 10 6 4 6 6 7 7 7 6 6 7
Wind_Direction
173 162 156 150 146 142 140 141 140 146 136 121 118 121 136 153 156 163 148 138 121 103 92 80 56 49 49 34 26 27 21 5 357 12 343 332 336 343 340 330 314 290 258
170 164 162 164 160 158 156 154 157 159 156 147 149 155 152 160 161 154 147 151 137 129 121 109 90 66 55 40 38 43 33 1 17 38 20 350 343 341 358 2 16 354 332
177 174 174 178 167 168 171 169 170 166 165 153 127 97 78 74 79 108 154 185 163 148 137 134 121 93 82 64 53 62 66 20 353 36 83 59 317 314 327 355 7 353 350
181 183 182 178 178 181 177 171 172 171 169 155 146 145 145 150 176 175 184 203 186 171 164 153 140 124 108 94 75 86 82 74 10 354 33 158 199 288 321 326 345 351 351
187 189 187 187 188 184 179 177 174 177 174 162 154 142 139 150 149 137 146 183 262 214 181 162 149 141 130 134 111 80 70 99 125 328 336 352 8 78 133 310 327 335 331
191 193 191 188 190 186 183 180 176 182 176 168 162 157 156 157 148 152 167 210 299 298 175 161 155 158 161 169 173 161 151 205 224 230 211 176 237 289 216 270 301 310 306
190 191 191 191 193 190 188 184 180 184 179 171 170 169 166 164 167 175 181 181 187 185 185 164 170 179 191 197 191 196 236 240 243 246 234 217 216 209 197 218 273 293 297
194 195 197 195 196 193 190 186 184 184 179 175 177 174 166 159 165 170 169 177 187 198 192 178 184 196 203 206 197 208 231 223 236 253 245 238 244 219 202 203 227 304 308
197 199 199 198 196 192 190 187 183 181 180 179 174 172 169 165 169 173 173 178 189 189 178 182 189 204 211 217 212 221 238 241 243 249 249 242 247 238 226 205 186 197 277
198 199 199 199 197 192 188 182 179 179 179 176 175 178 180 179 178 177 185 191 197 192 187 196 202 214 223 227 219 228 238 240 248 242 246 250 248 251 246 232 213 190 203
197 198 199 197 191 181 175 175 175 172 175 178 178 174 183 186 184 188 200 202 205 204 202 208 214 222 230 233 226 232 235 237 247 250 243 249 247 246 249 244 236 224 201
198 196 191 184 178 177 176 176 176 178 181 178 176 179 184 184 187 198 207 206 209 211 209 210 214 224 229 228 226 234 235 230 237 243 242 249 250 246 245 240 241 241 225
189 184 178 178 179 179 178 179 181 184 181 176 177 181 186 188 196 204 207 206 207 210 212 209 216 225 228 228 228 227 232 231 231 233 232 240 241 248 246 241 241 243 249
180 176 178 182 183 182 181 183 188 187 182 179 181 188 195 197 202 205 206 207 204 206 212 215 220 224 227 229 232 231 233 235 236 232 230 232 231 236 242 244 240 239 244
175 179 181 185 185 185 187 189 192 190 185 182 190 199 200 200 202 205 208 209 209 212 213 216 224 226 226 231 231 231 233 232 236 237 237 237 238 238 237 238 234 230 231
186 186 185 184 187 190 192 192 195 194 185 188 199 200 196 199 203 206 207 210 215 218 214 217 221 226 232 235 229 217 222 224 227 237 243 248 253 255 255 255 249 230 223
185 190 192 192 194 195 191 193 197 189 186 194 198 195 194 200 206 208 207 212 216 216 219 224 222 227 235 239 238 230 221 223 229 233 238 250 252 250 249 261 267 258 244
166 191 204 209 207 200 196 196 187 184 190 196 198 196 194 202 205 205 210 215 213 213 220 224 224 228 236 236 237 238 230 228 233 232 231 236 249 253 245 249 257 255 253
85 194 207 208 207 210 207 190 190 189 192 200 205 203 198 201 203 208 216 215 212 218 219 219 223 229 240 239 239 236 225 231 239 238 235 232 241 251 250 246 249 258 262
29 32 33 50 37 246 197 185 199 197 207 211 210 204 199 202 207 213 216 213 212 222 223 229 227 231 241 244 240 232 218 232 244 246 241 237 240 248 251 234 232 245 254
26 29 44 45 5 353 91 152 200 223 229 225 214 208 207 210 213 215 215 213 216 223 228 236 239 237 241 249 245 233 214 223 235 243 245 241 239 241 243 231 221 235 243
29 33 43 34 20 28 54 50 331 283 273 227 220 225 226 226 222 218 222 218 217 226 236 242 252 249 245 245 248 240 226 218 220 233 238 238 238 238 238 235 234 243 249
33 32 39 34 26 29 42 36 358 3 18 20 338 297 282 262 246 226 229 230 224 230 240 239 250 257 250 245 244 243 236 225 221 232 233 233 238 239 243 244 243 244 235
34 33 40 40 27 22 34 28 15 27 36 24 2 347 331 308 288 263 244 240 238 240 243 243 249 254 254 248 243 239 237 230 225 231 237 239 244 243 243 249 250 236 224
31 36 41 41 29 25 25 19 24 32 30 17 3 348 332 314 303 288 266 255 248 244 245 249 247 248 252 249 233 219 219 211 211 196 208 225 233 239 243 245 244 238 229
33 32 31 34 23 21 16 4 8 28 32 7 346 331 322 313 306 302 299 281 269 269 260 255 252 252 248 252 240 228 222 212 188 171 208 225 228 235 241 244 246 238 233